TIME,DELAY(SENSOR),PRES,OXYGEN,RAWTEMP,T(OPTODE),TCPHASE,FLUOR,BETA(BETA700),BETA(BETA412),BETA(BETA440),CDOM,C(CSC),ED(ED412.20),ED(ED444.00),ED(ED489.60),ED(ED554.30),LU(LU412.10),LU(LU443.90),LU(LU489.70),LU(LU554.70),COMP,TILTX,TILTY,CHECK
1367036123,5811,850.3599853515625000,32.1351089477539060,559.5507202148438000,4.4998188018798830,56.7368888854980500,56,98,99,78,82,15515,0,0,0,0,2147122313,2147768457,2147575113,2147567844,3315,2,13,32808
1367039719,5809,911.8200073242188000,35.7896499633789060,565.1422729492188000,4.3264179229736330,56.2074012756347660,54,98,100,78,81,15510,0,0,0,0,2147121609,2147772800,2147566793,2147567305,565,2,13,63188
1367043319,5812,910.1400146484375000,38.0187301635742200,567.6339111328125000,4.2490649223327640,55.8876304626464840,54,98,99,78,81,15514,0,0,0,0,2147119213,2147773376,2147572790,2147566244,633,2,13,53434
1367046919,5810,952.9000244140625000,38.3973693847656250,570.3593750000000000,4.1643919944763180,55.8627891540527340,56,96,99,78,82,15509,0,0,0,0,2147122185,2147773732,2147572644,2147565641,269,2,13,49184
1367050519,5813,955.5900268554688000,37.9594688415527340,570.1166992187500000,4.1719341278076170,55.9220199584960940,55,103,100,77,82,15511,0,0,0,0,2147122852,2147768045,2147569691,2147565376,3542,2,13,59394
1367054119,5807,958.7600097656250000,37.6808204650878900,570.1275024414062000,4.1715979576110840,55.9702110290527340,54,98,99,78,80,15511,0,0,0,0,2147120420,2147765092,2147573897,2147567789,283,2,13,65099
1367057719,5808,990.9199829101562000,39.3063583374023440,572.3784790039062000,4.1016240119934080,55.7430610656738300,54,98,98,80,81,15508,0,0,0,0,2147125485,2147768137,2147574592,2147567734,3334,2,13,55169
1367061319,5811,990.7899780273438000,38.8971710205078100,572.8643798828125000,4.0865139961242680,55.8096618652343750,54,98,99,77,81,15510,0,0,0,0,2147122587,2147770166,2147571666,2147567606,89,2,13,35884
1367064919,5809,985.1199951171875000,39.2398605346679700,573.1232299804688000,4.0784649848937990,55.7589302062988300,55,99,99,78,82,15510,0,0,0,0,2147121874,2147769069,2147569746,2147567570,3180,2,13,34416
1367068519,5810,989.8599853515625000,38.4499588012695300,573.3605957031250000,4.0710811614990230,55.8818817138671900,55,98,99,78,83,15510,0,0,0,0,2147122550,2147769252,2147571812,2147567149,36,2,13,6291
1367072119,5808,993.0000000000000000,39.2938804626464840,573.0457763671875000,4.0808720588684080,55.7514190673828100,55,97,101,78,82,15510,0,0,0,0,2147123894,2147771757,2147577307,2147568868,167,2,13,54606
1367075719,5812,992.8900146484375000,38.8353691101074200,573.2894287109375000,4.0732960700988770,55.8211212158203100,55,97,99,78,83,15510,0,0,0,0,2147120731,2147767552,2147575021,2147567616,66,2,13,49909
1367079319,5812,991.1599731445312000,37.8287506103515600,573.0238037109375000,4.0815558433532715,55.9757308959960940,55,99,99,77,81,15509,0,0,0,0,2147121892,2147773348,2147576923,2147570422,151,2,13,20746
1367082919,5809,988.7800292968750000,37.2388000488281250,573.9935302734375000,4.0513920783996580,56.0775985717773440,55,96,100,78,81,15510,0,0,0,0,2147123803,2147770386,2147573568,2147571318,3522,2,13,26122
1367086519,5810,994.0499877929688000,39.2465591430664060,573.6857299804688000,4.0609660148620605,55.7701988220214840,55,98,101,77,82,15508,0,0,0,0,2147120137,2147769270,2147567753,2147566747,59,3,13,51193
1367090119,5810,991.0999755859375000,39.0271911621093750,573.4600219726562000,4.0679869651794430,55.7945289611816400,55,98,100,77,82,15507,0,0,0,0,2147119524,2147768256,2147570742,2147568064,175,2,13,42376
1367093719,5811,991.7399902343750000,38.8723793029785160,573.6718139648438000,4.0614008903503420,55.8228187561035160,55,98,101,79,81,15505,0,0,0,0,2147122697,2147771264,2147572452,2147564260,336,2,13,20245
1367097319,5808,999.4199829101562000,37.9950294494628900,573.0800781250000000,4.0798048973083500,55.9521293640136700,55,98,100,78,82,15509,0,0,0,0,2147120146,2147764160,2147578221,2147567433,180,2,13,39181
1367100919,5809,995.3900146484375000,38.9797286987304700,573.4293212890625000,4.0689430236816410,55.8041687011718750,55,100,100,77,82,15505,0,0,0,0,2147121600,2147769920,2147574646,2147568201,3590,2,13,26827
1367104519,5812,992.5499877929688000,40.1390419006347660,573.7623901367188000,4.0585818290710450,55.6370506286621100,56,98,100,78,82,15509,0,0,0,0,2147122596,2147773814,2147568786,2147566171,3461,2,13,52362
1367108119,5808,998.5499877929688000,38.7004203796386700,573.4155883789062000,4.0693678855896000,55.8497200012207000,55,99,100,78,82,15506,0,0,0,0,2147117229,2147768822,2147569526,2147566354,3576,3,13,64260
1367111719,5808,994.8499755859375000,39.5053596496582000,573.5670776367188000,4.0646572113037110,55.7242889404296900,54,96,100,78,82,15505,0,0,0,0,2147121536,2147767305,2147573504,2147570624,3587,2,13,38745
1367115319,5809,993.6099853515625000,39.9981498718261700,573.6353149414062000,4.0625357627868650,55.6538200378418000,55,97,98,77,81,15506,0,0,0,0,2147122477,2147772178,2147574500,2147569033,2698,3,13,36930
1367118919,5808,982.4500122070312000,41.6523399353027340,574.4171752929688000,4.0382099151611330,55.4194602966308600,55,98,101,79,81,15503,0,0,0,0,2147126308,2147773714,2147571867,2147566418,538,2,13,47308
1367122519,5811,985.5300292968750000,42.0769615173339840,574.5648193359375000,4.0336170196533200,55.3561096191406250,54,98,100,79,82,15497,0,0,0,0,2147122541,2147765869,2147571163,2147566445,408,2,13,58108
1367126119,5811,980.8200073242188000,42.4408912658691400,575.1826782226562000,4.0143928527832030,55.3125000000000000,56,98,100,76,82,15484,0,0,0,0,2147121883,2147771684,2147570276,2147565677,3559,3,13,62064
1367129719,5809,988.5999755859375000,42.4188690185546900,575.1516723632812000,4.0153560638427730,55.3156814575195300,55,98,100,77,81,15480,0,0,0,0,2147119616,2147769472,2147577956,2147567003,124,2,13,51701
1367133319,5808,991.8499755859375000,40.1939315795898440,574.6779174804688000,4.0301017761230470,55.6378288269043000,55,97,101,77,81,15481,0,0,0,0,2147122249,2147768749,2147571666,2147565604,76,2,13,30559
1367136919,5810,998.5800170898438000,39.9129714965820300,574.1953735351562000,4.0451111793518070,55.6757316589355500,54,98,99,78,81,15482,0,0,0,0,2147120832,2147776164,2147576877,2147567606,132,2,13,55110
1367140519,5808,999.4500122070312000,40.2554512023925800,574.1196289062500000,4.0474681854248050,55.6203804016113300,55,116,100,77,82,15482,0,0,0,0,2147127378,2147773348,2147574701,2147565184,572,2,13,28187
1367144119,5812,1001.1099853515625000,38.3447189331054700,573.5482788085938000,4.0652408599853520,55.8989601135253900,55,97,100,77,83,15483,0,0,0,0,2147126445,2147766930,2147575954,2147566939,140,2,13,35549
1367147719,5809,1008.2100219726562000,38.8930091857910160,572.0869140625000000,4.1106929779052730,55.8020896911621100,55,97,101,78,82,15483,0,0,0,0,2147123849,2147774025,2147572672,2147567926,3568,2,13,39657
1367151319,5810,1010.6199951171875000,36.8674507141113300,571.3767700195312000,4.1327691078186035,56.1015510559082000,54,97,100,77,82,15483,0,0,0,0,2147123492,2147773604,2147568585,2147569874,202,2,13,12747
1367154919,5807,996.5399780273438000,39.1395606994628900,572.7883911132812000,4.0888772010803220,55.7724418640136700,55,98,99,78,82,15482,0,0,0,0,2147122349,2147764516,2147572864,2147567515,3042,2,13,20262
1367158519,5809,1002.4000244140625000,39.4482803344726560,573.0280761718750000,4.0814228057861330,55.7344017028808600,53,97,99,77,82,15484,0,0,0,0,2147124315,2147767424,2147569069,2147565202,2914,2,13,57645
1367162119,5811,999.3200073242188000,38.2292709350585940,573.6367187500000000,4.0624918937683105,55.9189987182617200,54,97,100,78,81,15481,0,0,0,0,2147120886,2147768886,2147574180,2147567442,3233,2,13,40634
1367165719,5811,995.7700195312500000,39.4235496520996100,574.2453002929688000,4.0435600280761720,55.7441711425781250,54,98,100,79,81,15481,0,0,0,0,2147121389,2147773165,2147571300,2147568969,205,2,13,35523
1367169319,5809,996.0499877929688000,40.4952888488769500,574.6989746093750000,4.0294442176818850,55.5944290161132800,55,96,99,78,81,15473,0,0,0,0,2147123785,2147766994,2147572937,2147567213,2827,2,13,308
1367172919,5809,995.8300170898438000,39.5992507934570300,574.6060791015625000,4.0323328971862790,55.7263717651367200,55,97,100,78,82,15480,0,0,0,0,2147124717,2147765586,2147569298,2147566025,311,2,13,51263
1367176519,5809,997.0599975585938000,40.4015884399414060,574.5983886718750000,4.0325717926025390,55.6066703796386700,54,97,100,78,83,15482,0,0,0,0,2147122944,2147771245,2147569600,2147568722,355,2,13,3800
1367180119,5808,998.2700195312500000,40.8458213806152340,574.5737304687500000,4.0333418846130370,55.5373687744140600,54,99,99,77,81,15481,0,0,0,0,2147123154,2147771291,2147571318,2147566125,168,2,13,64835
1367180756,5811,995.5800170898438000,39.6025085449218750,574.5368041992188000,4.0344910621643070,55.7194709777832000,55,99,99,78,82,15479,0,0,0,0,2147119552,2147771739,2147573046,2147564763,82,2,13,55631
